ST-2

Last updated on Tue Sep 16 2025 00:02:47 GMT+0000 (Coordinated Universal Time)

1 37606U 11022B 25258.53066904 -.00000228 00000+0 00000+0 0 9994 2 37606 0.0171 117.0160 0001970 93.1544 63.6202 1.00270336 52527
UTC large
Height (km)
Speed (km/s)
/
Latitude / Longitude
Inclination (degrees)
Orbital Period (minutes)
Azimuth
Elevation
Range (km)
Doppler Factor

Next 0 passes for location: London (51.5072 / 0.1276)

Sorry there are no passes over London.